Location: *
(50.8512°N, 5.6907°E)
Time: 07:55:14
(UTC+00:00)

Cosmos 1908 - Pass Details

Date: 09 April 2020
Orbit: 511 x 531 km, 82.5° (Epoch: 02 June)

Event Time Altitude Azimuth Distance (km) Brightness Sun altitude
Rises 19:06:19 0° 182° (S) 2,640 6.6 -7.2°
Reaches altitude 10° 19:08:26 10° 179° (S) 1,760 5.7 -7.5°
Maximum altitude 19:12:16 67° 98° (E) 576 3.2 -8.1°
Drops below altitude 10° 19:16:10 10° 15° (NNE) 1,787 6.1 -8.7°
Sets 19:18:20 0° 13° (NNE) 2,685 7.0 -9.0°
